Regional Weather Roundup
Issued by NWS

Home | Current Version | Previous Version | Text Only | Print | Product List | Glossary On
Versions: 1 2 3 4 5 6 7 8 9 10 11 12 13 14 15 16 17 18 19 20 21 22 23 24 25 26 27 28 29 30 31 32 33 34 35 36 37 38 39 40 41 42 43 44 45 46 47 48 49 50
000
ASUS43 KBIS 221459
RWRND

NORTH DAKOTA REGIONAL WEATHER ROUNDUP
NATIONAL WEATHER SERVICE BISMARCK ND
1000 AM CDT FRI AUG 22 2014

NOTE: "FAIR" INDICATES FEW OR NO CLOUDS BELOW 12,000 FEET WITH NO
SIGNIFICANT WEATHER AND/OR OBSTRUCTIONS TO VISIBILITY.


NDZ001>003-009>011-017-221600-
NORTHWEST NORTH DAKOTA

CITY           SKY/WX    TMP DP  RH WIND       PRES   REMARKS
WILLISTON      PTSUNNY   63  55  75 NE13      30.10R
MINOT          LGT RAIN  60  58  92 N13       30.07R FOG
$$

NDZ018>021-031>035-040>046-221600-
SOUTHWEST NORTH DAKOTA

CITY           SKY/WX    TMP DP  RH WIND       PRES   REMARKS
BISMARCK       CLOUDY    69  65  86 CALM      30.05R
DICKINSON      CLOUDY    64  60  87 CALM      30.06S
GARRISON         N/A     62  61  96 NE8       30.06R
HETTINGER ARPT CLOUDY    64  59  83 CALM      30.08R
$$

NDZ004>008-012>016-024-026-027-054-221600-
NORTHEAST NORTH DAKOTA

CITY           SKY/WX    TMP DP  RH WIND       PRES   REMARKS
GRAND FORKS    CLOUDY    66  64  93 N16       29.98R
DEVILS LAKE    CLOUDY    64  57  77 N10       30.02S
$$

NDZ022-023-025-028>030-036>039-047>053-221600-
SOUTHEAST NORTH DAKOTA

CITY           SKY/WX    TMP DP  RH WIND       PRES   REMARKS
FARGO          CLOUDY    70  68  93 N8        29.97R
JAMESTOWN      CLOUDY    68  65  90 N6        30.01S
$$




USA.gov is the U.S. government's official web portal to all federal, state and local government web resources and services.